Location: Praha
(50.0830°N, 14.4670°E)
Time: 10:32:59
(UTC+01:00)

ISS - Pass Details

Date: 25 January 2023
Orbit: 412 x 423 km, 51.6° (Epoch: 06 February)

Event Time Altitude Azimuth Distance (km) Brightness Sun altitude
Rises 17:35:53 0° 259° (W) 2,376 2.3 -8.4°
Reaches altitude 10° 17:37:59 10° 261° (W) 1,513 0.7 -8.8°
Maximum altitude 17:41:23 78° 348° (NNW) 439 -3.7 -9.3°
Enters shadow 17:44:14 14° 74° (ENE) 1,284 -2.0 -9.7°
